FENGYUN 2G

Last updated on Mon Sep 07 2026 00:02:40 GMT+0000 (Coordinated Universal Time)

1 40367U 14090A 26249.54025477 -.00000318 00000+0 00000+0 0 9992 2 40367 5.8375 71.7896 0004077 184.8555 23.1350 1.00276817 42813
UTC large
Height (km)
Speed (km/s)
/
Latitude / Longitude
Inclination (degrees)
Orbital Period (minutes)
Azimuth
Elevation
Range (km)
Doppler Factor

Next 0 passes for location: London (51.5072 / 0.1276)

No passes found over London.
FENGYUN 2G